OE7AOT Weather Reports


time (UTC)temp
C
wind
direction
speed
KPH
gust
KPH
rain 1hr
cm
rain 24hr
cm
rain mn
cm
humidity
%
barometer
mb
20260510020658 7 145 12.9 0.0 0.00 0.61 0.00 84 912.0
20260510013658 7 101 20.9 0.0 0.00 0.61 0.00 84 912.1
20260510010658 7 98 17.7 0.0 0.00 0.61 0.00 83 912.3
20260510003658 7 111 19.3 0.0 0.00 0.61 0.00 82 912.5
20260510000658 8 142 22.5 0.0 0.00 0.61 0.00 82 912.7
20260509233658 8 110 17.7 0.0 0.00 0.61 0.00 82 913.0
20260509230658 8 120 19.3 0.0 0.00 0.61 0.00 80 913.1
20260509223658 8 128 14.5 0.0 0.00 0.61 0.00 80 913.3
20260509220658 9 81 11.3 0.0 0.00 0.61 0.00 77 913.5
20260509213658 10 156 12.9 0.0 0.00 0.61 0.00 75 913.5
20260509210658 10 162 14.5 0.0 0.00 0.61 0.00 70 913.4
20260509203658 11 136 8.0 0.0 0.00 0.61 0.00 67 913.7
20260509200658 11 114 6.4 0.0 0.00 0.61 0.00 65 913.9
20260509193658 12 162 8.0 0.0 0.00 0.61 0.00 64 913.8
20260509190658 13 183 12.9 0.0 0.00 0.61 0.00 62 913.6
20260509183658 14 139 11.3 0.0 0.00 0.61 0.00 58 913.5
20260509180658 15 148 20.9 0.0 0.00 0.61 0.00 54 913.3
20260509173658 17 125 25.7 0.0 0.00 0.61 0.00 49 913.1
20260509170658 18 145 25.7 0.0 0.00 0.61 0.00 48 913.3
20260509163658 19 146 24.1 0.0 0.00 0.61 0.00 45 913.5
20260509160658 18 142 33.8 0.0 0.00 0.61 0.00 48 913.7
20260509153658 17 141 29.0 0.0 0.00 0.61 0.00 53 913.9
20260509150658 20 152 24.1 0.0 0.00 0.61 0.00 43 913.6
20260509143658 20 286 12.9 0.0 0.00 0.61 0.00 42 913.3
20260509140658 19 280 17.7 0.0 0.00 0.61 0.00 47 913.2
20260509133658 20 314 12.9 0.0 0.00 0.61 0.00 46 913.1
20260509130658 20 269 9.7 0.0 0.00 0.61 0.00 40 913.0
20260509123658 21 273 14.5 0.0 0.00 0.61 0.00 39 912.8
20260509120704 22 261 11.3 0.0 0.00 0.61 0.00 37 913.0
20260509120658 22 261 11.3 0.0 0.00 0.61 0.00 37 913.0
20260509113658 22 279 16.1 0.0 0.00 0.61 0.00 38 913.3
20260509110658 21 282 12.9 0.0 0.00 0.61 0.00 40 913.6
20260509103658 20 307 11.3 0.0 0.00 0.61 0.00 43 914.0
20260509100658 19 269 12.9 0.0 0.00 0.61 0.00 48 914.4
20260509093658 18 251 14.5 0.0 0.00 0.61 0.00 52 914.7
20260509090658 17 288 19.3 0.0 0.00 0.61 0.00 53 914.9
20260509083658 16 289 14.5 0.0 0.00 0.61 0.00 59 915.1
20260509080658 14 289 14.5 0.0 0.00 0.61 0.00 64 915.3
20260509073658 13 295 12.9 0.0 0.00 0.61 0.00 64 915.3
20260509070658 12 286 8.0 0.0 0.00 0.61 0.00 69 915.3
20260509063658 10 0 0.0 0.0 0.00 0.61 0.00 75 915.0
20260509060658 9 0 0.0 0.0 0.00 0.61 0.00 78 915.0
20260509053658 8 0 0.0 0.0 0.00 0.61 0.00 79 914.9
20260509050658 8 0 0.0 0.0 0.00 0.61 0.00 80 914.5
20260509043658 7 118 9.7 0.0 0.00 0.61 0.00 81 914.3
20260509040658 7 0 0.0 0.0 0.00 0.61 0.00 80 914.1
20260509033658 7 0 0.0 0.0 0.00 0.61 0.00 79 914.0
20260509030658 7 0 0.0 0.0 0.00 0.61 0.00 79 913.9
20260509023658 7 87 1.6 0.0 0.00 0.61 0.00 79 913.7